Location: Kershaw
(34.5481°N, 80.5823°W)
Time: 15:45:56
(UTC+00:00)

Transit 4A - Pass Details

Date: 09 October 2022
Orbit: 871 x 972 km, 66.8° (Epoch: 29 November)

Event Time Altitude Azimuth Distance (km) Brightness Sun altitude
Rises 11:39:04 0° 328° (NNW) 3,471 10.5 2.4°
Reaches altitude 10° 11:41:36 10° 324° (NW) 2,525 9.8 2.9°
Maximum altitude 11:47:15 54° 248° (WSW) 1,051 8.0 4.1°
Drops below altitude 10° 11:52:53 10° 173° (S) 2,518 10.5 5.2°
Sets 11:55:25 0° 168° (SSE) 3,460 11.2 5.7°
